Location: Boullarre
(49.1305°N, 3.0047°E)
Time: 19:47:08
(UTC+00:00)

Cosmos 1892 - Visible Passes

Search period start: 12 October 2024 00:00
Search period end: 22 October 2024 00:00
Orbit: 437 x 448 km, 82.5° (Epoch: 12 October)

Date Brightness Start Highest point End Pass type
(mag) Time Alt. Az. Time Alt. Az. Time Alt. Az.
12 Oct 2.6 19:01:22 10° NNW 19:04:49 69° W 19:05:55 39° SSW visible
13 Oct 2.6 18:23:34 10° N 18:26:57 48° ENE 18:29:11 19° SE visible
13 Oct 5.7 19:59:16 10° WNW 20:00:43 12° W 20:02:09 10° WSW visible
14 Oct 3.6 17:46:07 10° NNE 17:48:53 22° ENE 17:51:39 10° SE visible
14 Oct 4.6 19:20:09 10° NNW 19:23:04 26° W 19:25:58 10° SSW visible
15 Oct 2.9 18:41:50 10° NNW 18:45:15 60° W 18:48:38 10° S visible
16 Oct 2.4 18:03:50 10° N 18:07:14 55° ENE 18:10:37 10° SSE visible
16 Oct 5.9 19:40:00 10° WNW 19:40:56 11° W 19:41:52 10° W visible
17 Oct 3.5 17:26:09 10° NNE 17:29:02 24° ENE 17:31:55 10° SE visible
17 Oct 4.9 19:00:22 10° NW 19:03:09 23° W 19:05:54 10° SW visible
18 Oct 3.2 18:21:49 10° NNW 18:25:11 53° W 18:28:31 10° S visible
19 Oct 2.4 17:43:36 10° N 17:47:02 62° ENE 17:50:25 10° SSE visible
20 Oct 5.2 18:40:04 10° NW 18:42:43 21° W 18:45:22 10° SW visible
21 Oct 3.5 18:01:17 10° NNW 18:04:36 47° W 18:07:54 10° S visible
